Time,TemperatureF,DewpointF,PressureIn,WindDirection,WindDirectionDegrees,WindSpeedMPH,WindSpeedGustMPH,Humidity,HourlyPrecipIn,Conditions,Clouds,dailyrainin,SoftwareType,DateUTC
2013-01-05 00:00:00,31.3,16.1,29.32,NNW,338,4.3,7.6,53,0.00,,,0.00,VWS V14.01,2013-01-05 05:00:00,
2013-01-05 00:01:00,31.3,16.6,29.32,NW,315,8.5,8.5,54,0.00,,,0.00,VWS V14.01,2013-01-05 05:01:00,
2013-01-05 00:05:00,31.3,16.1,29.32,WNW,292,4.0,7.2,53,0.00,,,0.00,VWS V14.01,2013-01-05 05:05:00,
2013-01-05 00:10:00,31.1,15.5,29.35,West,270,5.6,6.0,52,0.00,,,0.00,VWS V14.01,2013-01-05 05:10:00,
2013-01-05 00:16:00,30.9,15.4,29.35,North,0,3.8,5.8,52,0.00,,,0.00,VWS V14.01,2013-01-05 05:16:00,
2013-01-05 00:21:00,31.1,15.5,29.35,NW,315,3.4,7.2,52,0.00,,,0.00,VWS V14.01,2013-01-05 05:21:00,
2013-01-05 00:26:00,30.9,15.4,29.35,NW,315,3.8,4.9,52,0.00,,,0.00,VWS V14.01,2013-01-05 05:26:00,
2013-01-05 00:31:00,30.9,15.4,29.35,WNW,292,3.8,9.4,52,0.00,,,0.00,VWS V14.01,2013-01-05 05:31:00,
2013-01-05 00:36:00,30.9,15.4,29.35,WNW,292,4.3,5.4,52,0.00,,,0.00,VWS V14.01,2013-01-05 05:36:00,
2013-01-05 00:41:00,30.9,15.4,29.35,WNW,292,4.9,4.9,52,0.00,,,0.00,VWS V14.01,2013-01-05 05:41:00,
2013-01-05 00:46:00,30.7,15.2,29.35,WNW,292,3.4,4.9,52,0.00,,,0.00,VWS V14.01,2013-01-05 05:46:00,
2013-01-05 00:51:00,30.7,15.6,29.35,North,0,4.3,4.3,53,0.00,,,0.00,VWS V14.01,2013-01-05 05:51:00,
2013-01-05 00:56:00,30.7,16.1,29.35,NNW,338,2.9,3.8,54,0.00,,,0.00,VWS V14.01,2013-01-05 05:56:00,
2013-01-05 01:01:00,30.7,16.1,29.35,WNW,292,2.7,6.0,54,0.00,,,0.00,VWS V14.01,2013-01-05 06:01:00,
2013-01-05 01:06:00,30.7,16.1,29.35,WNW,292,8.5,8.5,54,0.00,,,0.00,VWS V14.01,2013-01-05 06:06:00,
2013-01-05 01:11:00,30.9,15.8,29.35,WNW,292,3.4,6.3,53,0.00,,,0.00,VWS V14.01,2013-01-05 06:11:00,
2013-01-05 01:16:00,30.9,15.8,29.35,NW,315,2.5,2.5,53,0.00,,,0.00,VWS V14.01,2013-01-05 06:16:00,
2013-01-05 01:21:00,30.9,16.2,29.35,NW,315,4.9,4.9,54,0.00,,,0.00,VWS V14.01,2013-01-05 06:21:00,
2013-01-05 01:26:00,30.9,16.2,29.35,West,270,2.9,2.9,54,0.00,,,0.00,VWS V14.01,2013-01-05 06:26:00,
2013-01-05 01:31:00,30.7,16.1,29.35,NW,315,3.6,3.6,54,0.00,,,0.00,VWS V14.01,2013-01-05 06:31:00,
2013-01-05 01:36:00,30.7,16.1,29.35,WNW,292,1.6,3.8,54,0.00,,,0.00,VWS V14.01,2013-01-05 06:36:00,
2013-01-05 01:41:00,30.9,16.2,29.35,WSW,248,2.5,2.5,54,0.00,,,0.00,VWS V14.01,2013-01-05 06:41:00,
2013-01-05 01:46:00,30.7,16.1,29.35,WNW,292,2.9,3.6,54,0.00,,,0.00,VWS V14.01,2013-01-05 06:46:00,
2013-01-05 01:51:00,30.6,15.9,29.35,WNW,292,1.6,2.2,54,0.00,,,0.00,VWS V14.01,2013-01-05 06:51:00,
2013-01-05 01:56:00,30.6,15.5,29.35,NW,315,2.5,4.3,53,0.00,,,0.00,VWS V14.01,2013-01-05 06:56:00,
2013-01-05 02:01:00,30.6,15.5,29.35,NW,315,3.1,3.1,53,0.00,,,0.00,VWS V14.01,2013-01-05 07:01:00,
2013-01-05 02:06:00,30.7,15.6,29.35,NW,315,1.3,3.6,53,0.00,,,0.00,VWS V14.01,2013-01-05 07:06:00,
2013-01-05 02:11:00,30.7,16.1,29.35,WNW,292,2.7,3.1,54,0.00,,,0.00,VWS V14.01,2013-01-05 07:11:00,
2013-01-05 02:16:00,30.9,16.2,29.35,NW,315,2.5,4.9,54,0.00,,,0.00,VWS V14.01,2013-01-05 07:16:00,
2013-01-05 02:21:00,30.9,16.2,29.38,NNW,338,3.8,3.8,54,0.00,,,0.00,VWS V14.01,2013-01-05 07:21:00,
2013-01-05 02:26:00,30.9,16.2,29.38,WNW,292,1.1,2.9,54,0.00,,,0.00,VWS V14.01,2013-01-05 07:26:00,
2013-01-05 02:31:00,30.7,16.1,29.38,NNW,338,2.5,2.9,54,0.00,,,0.00,VWS V14.01,2013-01-05 07:31:00,
2013-01-05 02:36:00,30.9,16.2,29.35,WNW,292,2.9,7.8,54,0.00,,,0.00,VWS V14.01,2013-01-05 07:36:00,
2013-01-05 02:42:00,30.9,15.8,29.35,West,270,2.7,3.8,53,0.00,,,0.00,VWS V14.01,2013-01-05 07:42:00,
2013-01-05 02:47:00,30.7,16.1,29.35,NW,315,2.0,2.9,54,0.00,,,0.00,VWS V14.01,2013-01-05 07:47:00,
2013-01-05 02:52:00,31.1,16.0,29.35,NNW,338,2.5,2.5,53,0.00,,,0.00,VWS V14.01,2013-01-05 07:52:00,
2013-01-05 02:57:00,31.1,16.0,29.38,West,270,1.6,1.6,53,0.00,,,0.00,VWS V14.01,2013-01-05 07:57:00,
2013-01-05 03:02:00,31.1,16.4,29.38,WNW,292,2.7,3.4,54,0.00,,,0.00,VWS V14.01,2013-01-05 08:02:00,
2013-01-05 03:07:00,31.1,16.4,29.38,NW,315,2.0,3.8,54,0.00,,,0.00,VWS V14.01,2013-01-05 08:07:00,
2013-01-05 03:12:00,31.1,16.4,29.38,WSW,248,2.0,2.0,54,0.00,,,0.00,VWS V14.01,2013-01-05 08:12:00,
2013-01-05 03:17:00,31.3,16.1,29.38,West,270,4.3,5.8,53,0.00,,,0.00,VWS V14.01,2013-01-05 08:17:00,
2013-01-05 03:22:00,31.1,16.0,29.41,SW,225,2.5,2.9,53,0.00,,,0.00,VWS V14.01,2013-01-05 08:22:00,
2013-01-05 03:27:00,31.3,16.1,29.41,West,270,4.9,5.6,53,0.00,,,0.00,VWS V14.01,2013-01-05 08:27:00,
2013-01-05 03:32:00,31.3,16.1,29.41,WSW,248,2.9,6.3,53,0.00,,,0.00,VWS V14.01,2013-01-05 08:32:00,
2013-01-05 03:37:00,31.3,16.1,29.38,WNW,292,2.5,2.9,53,0.00,,,0.00,VWS V14.01,2013-01-05 08:37:00,
2013-01-05 03:42:00,31.1,16.0,29.38,WNW,292,0.0,0.0,53,0.00,,,0.00,VWS V14.01,2013-01-05 08:42:00,
2013-01-05 03:47:00,31.1,16.0,29.38,WNW,292,0.0,1.6,53,0.00,,,0.00,VWS V14.01,2013-01-05 08:47:00,
2013-01-05 03:52:00,31.1,16.4,29.38,WNW,292,2.2,2.7,54,0.00,,,0.00,VWS V14.01,2013-01-05 08:52:00,
2013-01-05 03:57:00,30.9,16.2,29.38,NNW,338,0.0,0.0,54,0.00,,,0.00,VWS V14.01,2013-01-05 08:57:00,
2013-01-05 04:02:00,30.7,16.1,29.38,NW,315,2.0,2.5,54,0.00,,,0.00,VWS V14.01,2013-01-05 09:02:00,
2013-01-05 04:07:00,30.9,16.2,29.41,West,270,4.3,4.3,54,0.00,,,0.00,VWS V14.01,2013-01-05 09:07:00,
2013-01-05 04:12:00,31.1,16.4,29.41,WSW,248,6.0,6.3,54,0.00,,,0.00,VWS V14.01,2013-01-05 09:12:00,
2013-01-05 04:17:00,31.1,16.0,29.41,WSW,248,5.6,5.6,53,0.00,,,0.00,VWS V14.01,2013-01-05 09:17:00,
2013-01-05 04:22:00,31.1,16.0,29.44,WSW,248,3.1,3.1,53,0.00,,,0.00,VWS V14.01,2013-01-05 09:22:00,
2013-01-05 04:27:00,31.1,16.0,29.44,WSW,248,3.4,3.4,53,0.00,,,0.00,VWS V14.01,2013-01-05 09:27:00,
2013-01-05 04:32:00,31.1,16.0,29.44,WSW,248,1.3,1.3,53,0.00,,,0.00,VWS V14.01,2013-01-05 09:32:00,
2013-01-05 04:37:00,31.1,16.0,29.44,WSW,248,2.2,2.2,53,0.00,,,0.00,VWS V14.01,2013-01-05 09:37:00,
2013-01-05 04:42:00,31.1,16.0,29.41,West,270,3.4,3.4,53,0.00,,,0.00,VWS V14.01,2013-01-05 09:42:00,
2013-01-05 04:47:00,30.9,15.8,29.41,WSW,248,2.2,2.2,53,0.00,,,0.00,VWS V14.01,2013-01-05 09:47:00,
2013-01-05 04:52:00,30.9,15.8,29.41,WSW,248,2.9,2.9,53,0.00,,,0.00,VWS V14.01,2013-01-05 09:52:00,
2013-01-05 04:57:00,31.1,15.5,29.41,West,270,3.8,3.8,52,0.00,,,0.00,VWS V14.01,2013-01-05 09:57:00,
2013-01-05 05:02:00,30.9,15.8,29.41,WSW,248,0.0,1.3,53,0.00,,,0.00,VWS V14.01,2013-01-05 10:02:00,
2013-01-05 05:07:00,30.7,15.6,29.41,SW,225,1.1,1.6,53,0.00,,,0.00,VWS V14.01,2013-01-05 10:07:00,
2013-01-05 05:12:00,30.7,15.6,29.41,SW,225,3.1,3.1,53,0.00,,,0.00,VWS V14.01,2013-01-05 10:12:00,
2013-01-05 05:17:00,30.7,15.6,29.41,WSW,248,2.5,3.6,53,0.00,,,0.00,VWS V14.01,2013-01-05 10:17:00,
2013-01-05 05:22:00,30.9,15.8,29.41,SSW,202,2.5,2.5,53,0.00,,,0.00,VWS V14.01,2013-01-05 10:22:00,
2013-01-05 05:27:00,30.9,15.8,29.41,SW,225,0.0,0.0,53,0.00,,,0.00,VWS V14.01,2013-01-05 10:27:00,
2013-01-05 05:32:00,30.7,15.6,29.41,SW,225,0.0,0.0,53,0.00,,,0.00,VWS V14.01,2013-01-05 10:32:00,
2013-01-05 05:37:00,30.6,15.5,29.41,SE,135,2.2,2.2,53,0.00,,,0.00,VWS V14.01,2013-01-05 10:37:00,
2013-01-05 05:42:00,30.6,15.5,29.41,SSE,158,0.0,0.0,53,0.00,,,0.00,VWS V14.01,2013-01-05 10:42:00,
2013-01-05 05:47:00,30.4,15.3,29.41,SE,135,0.0,0.0,53,0.00,,,0.00,VWS V14.01,2013-01-05 10:47:00,
2013-01-05 05:53:00,30.2,15.6,29.44,SE,135,0.0,0.0,54,0.00,,,0.00,VWS V14.01,2013-01-05 10:53:00,
2013-01-05 05:58:00,30.4,15.3,29.44,South,180,0.0,0.0,53,0.00,,,0.00,VWS V14.01,2013-01-05 10:58:00,
2013-01-05 06:03:00,30.4,15.3,29.44,SSW,202,0.0,0.9,53,0.00,,,0.00,VWS V14.01,2013-01-05 11:03:00,
2013-01-05 06:08:00,30.2,15.6,29.44,South,180,2.9,2.9,54,0.00,,,0.00,VWS V14.01,2013-01-05 11:08:00,
2013-01-05 06:13:00,30.4,15.7,29.44,South,180,2.2,3.1,54,0.00,,,0.00,VWS V14.01,2013-01-05 11:13:00,
2013-01-05 06:18:00,30.2,16.0,29.44,South,180,3.1,3.1,55,0.00,,,0.00,VWS V14.01,2013-01-05 11:18:00,
2013-01-05 06:23:00,30.2,16.0,29.44,ESE,112,2.0,2.9,55,0.00,,,0.00,VWS V14.01,2013-01-05 11:23:00,
2013-01-05 06:28:00,30.2,16.0,29.44,SSW,202,2.7,2.7,55,0.00,,,0.00,VWS V14.01,2013-01-05 11:28:00,
2013-01-05 06:33:00,30.2,16.4,29.44,SSE,158,2.7,2.9,56,0.00,,,0.00,VWS V14.01,2013-01-05 11:33:00,
2013-01-05 06:38:00,30.2,16.4,29.44,SE,135,2.2,2.2,56,0.00,,,0.00,VWS V14.01,2013-01-05 11:38:00,
2013-01-05 06:43:00,30.2,16.4,29.44,South,180,0.0,0.0,56,0.00,,,0.00,VWS V14.01,2013-01-05 11:43:00,
2013-01-05 06:48:00,30.0,16.2,29.44,ESE,112,0.0,0.0,56,0.00,,,0.00,VWS V14.01,2013-01-05 11:48:00,
2013-01-05 06:53:00,30.0,16.2,29.44,SSW,202,0.0,1.3,56,0.00,,,0.00,VWS V14.01,2013-01-05 11:53:00,
2013-01-05 06:58:00,30.0,16.2,29.44,SSE,158,0.0,0.9,56,0.00,,,0.00,VWS V14.01,2013-01-05 11:58:00,
2013-01-05 07:03:00,29.8,16.1,29.44,SE,135,0.0,0.0,56,0.00,,,0.00,VWS V14.01,2013-01-05 12:03:00,
2013-01-05 07:08:00,29.7,15.9,29.41,ESE,112,2.0,2.7,56,0.00,,,0.00,VWS V14.01,2013-01-05 12:08:00,
2013-01-05 07:13:00,29.7,16.3,29.41,ESE,112,3.6,3.6,57,0.00,,,0.00,VWS V14.01,2013-01-05 12:13:00,
2013-01-05 07:18:00,29.7,16.3,29.41,SSE,158,1.6,3.6,57,0.00,,,0.00,VWS V14.01,2013-01-05 12:18:00,
2013-01-05 07:23:00,29.7,16.3,29.44,SSE,158,1.6,1.6,57,0.00,,,0.00,VWS V14.01,2013-01-05 12:23:00,
2013-01-05 07:28:00,29.7,16.3,29.44,South,180,1.1,1.1,57,0.00,,,0.00,VWS V14.01,2013-01-05 12:28:00,
2013-01-05 07:33:00,29.5,16.1,29.44,SSE,158,0.0,1.1,57,0.00,,,0.00,VWS V14.01,2013-01-05 12:33:00,
2013-01-05 07:38:00,29.5,16.1,29.44,SSW,202,2.9,2.9,57,0.00,,,0.00,VWS V14.01,2013-01-05 12:38:00,
2013-01-05 07:43:00,29.5,16.5,29.44,South,180,3.6,3.6,58,0.00,,,0.00,VWS V14.01,2013-01-05 12:43:00,
2013-01-05 07:48:00,29.5,16.5,29.44,SSW,202,2.7,3.1,58,0.00,,,0.00,VWS V14.01,2013-01-05 12:48:00,
2013-01-05 07:53:00,29.3,16.4,29.44,SSW,202,1.6,1.6,58,0.00,,,0.00,VWS V14.01,2013-01-05 12:53:00,
2013-01-05 07:59:00,29.1,16.2,29.44,SSW,202,1.1,1.3,58,0.00,,,0.00,VWS V14.01,2013-01-05 12:59:00,
2013-01-05 08:04:00,29.3,16.4,29.44,SSW,202,1.3,2.9,58,0.00,,,0.00,VWS V14.01,2013-01-05 13:04:00,
2013-01-05 08:09:00,29.1,16.2,29.41,WSW,248,1.6,2.5,58,0.00,,,0.00,VWS V14.01,2013-01-05 13:09:00,
2013-01-05 08:14:00,28.4,15.9,29.41,South,180,2.7,2.7,59,0.00,,,0.00,VWS V14.01,2013-01-05 13:14:00,
2013-01-05 08:19:00,28.6,16.5,29.41,South,180,1.1,3.1,60,0.00,,,0.00,VWS V14.01,2013-01-05 13:19:00,
2013-01-05 08:24:00,28.6,16.5,29.44,SSE,158,2.9,2.9,60,0.00,,,0.00,VWS V14.01,2013-01-05 13:24:00,
2013-01-05 08:29:00,28.6,16.5,29.44,SSE,158,2.7,3.6,60,0.00,,,0.00,VWS V14.01,2013-01-05 13:29:00,
2013-01-05 08:34:00,28.4,16.3,29.44,SSE,158,2.0,2.0,60,0.00,,,0.00,VWS V14.01,2013-01-05 13:34:00,
2013-01-05 08:39:00,28.4,16.3,29.41,SE,135,0.9,0.9,60,0.00,,,0.00,VWS V14.01,2013-01-05 13:39:00,
2013-01-05 08:44:00,28.6,16.5,29.41,SW,225,0.0,0.0,60,0.00,,,0.00,VWS V14.01,2013-01-05 13:44:00,
2013-01-05 08:49:00,28.8,16.2,29.41,SSE,158,2.0,2.5,59,0.00,,,0.00,VWS V14.01,2013-01-05 13:49:00,
2013-01-05 08:54:00,28.8,16.6,29.41,SSE,158,2.0,3.1,60,0.00,,,0.00,VWS V14.01,2013-01-05 13:54:00,
2013-01-05 08:59:00,28.8,16.6,29.41,SSE,158,4.0,4.0,60,0.00,,,0.00,VWS V14.01,2013-01-05 13:59:00,
2013-01-05 09:04:00,28.9,16.4,29.41,SSW,202,4.0,4.0,59,0.00,,,0.00,VWS V14.01,2013-01-05 14:04:00,
2013-01-05 09:09:00,29.5,16.9,29.44,SSE,158,1.1,3.4,59,0.00,,,0.00,VWS V14.01,2013-01-05 14:09:00,
2013-01-05 09:14:00,30.9,17.9,29.44,SSE,158,2.7,3.8,58,0.00,,,0.00,VWS V14.01,2013-01-05 14:14:00,
2013-01-05 09:19:00,31.3,17.4,29.44,SSW,202,4.0,4.0,56,0.00,,,0.00,VWS V14.01,2013-01-05 14:19:00,
2013-01-05 09:24:00,31.8,17.9,29.41,SSE,158,1.3,2.0,56,0.00,,,0.00,VWS V14.01,2013-01-05 14:24:00,
2013-01-05 09:29:00,33.1,18.7,29.41,ESE,112,2.9,2.9,55,0.00,,,0.00,VWS V14.01,2013-01-05 14:29:00,
2013-01-05 09:34:00,34.0,18.7,29.41,South,180,3.1,3.1,53,0.00,,,0.00,VWS V14.01,2013-01-05 14:34:00,
2013-01-05 09:39:00,34.3,18.5,29.41,SSE,158,2.0,2.5,52,0.00,,,0.00,VWS V14.01,2013-01-05 14:39:00,
2013-01-05 09:44:00,34.2,18.4,29.41,ESE,112,1.6,1.6,52,0.00,,,0.00,VWS V14.01,2013-01-05 14:44:00,
2013-01-05 09:49:00,34.2,18.4,29.41,East,90,3.6,3.6,52,0.00,,,0.00,VWS V14.01,2013-01-05 14:49:00,
2013-01-05 09:54:00,34.7,18.4,29.41,SE,135,2.5,2.5,51,0.00,,,0.00,VWS V14.01,2013-01-05 14:54:00,
2013-01-05 09:59:00,34.9,18.6,29.41,SSW,202,3.4,3.6,51,0.00,,,0.00,VWS V14.01,2013-01-05 14:59:00,
2013-01-05 10:04:00,35.4,18.6,29.41,ESE,112,2.7,3.8,50,0.00,,,0.00,VWS V14.01,2013-01-05 15:04:00,
2013-01-05 10:09:00,36.0,18.7,29.38,ESE,112,5.8,5.8,49,0.00,,,0.00,VWS V14.01,2013-01-05 15:09:00,
2013-01-05 10:14:00,35.8,18.5,29.38,ENE,68,2.7,3.4,49,0.00,,,0.00,VWS V14.01,2013-01-05 15:14:00,
2013-01-05 10:19:00,36.1,18.4,29.38,ESE,112,2.0,4.9,48,0.00,,,0.00,VWS V14.01,2013-01-05 15:19:00,
2013-01-05 10:24:00,36.1,18.4,29.38,SSE,158,3.8,3.8,48,0.00,,,0.00,VWS V14.01,2013-01-05 15:24:00,
2013-01-05 10:29:00,35.4,17.2,29.38,South,180,2.9,2.9,47,0.00,,,0.00,VWS V14.01,2013-01-05 15:29:00,
2013-01-05 10:34:00,35.6,16.9,29.38,SE,135,5.6,5.8,46,0.00,,,0.00,VWS V14.01,2013-01-05 15:34:00,
2013-01-05 10:40:00,35.6,16.9,29.41,SE,135,0.9,2.2,46,0.00,,,0.00,VWS V14.01,2013-01-05 15:40:00,
2013-01-05 10:45:00,35.6,16.4,29.41,SSE,158,1.6,5.8,45,0.00,,,0.00,VWS V14.01,2013-01-05 15:45:00,
2013-01-05 10:50:00,36.0,16.7,29.41,SE,135,0.0,6.5,45,0.00,,,0.00,VWS V14.01,2013-01-05 15:50:00,
2013-01-05 10:55:00,36.1,16.4,29.38,South,180,5.8,5.8,44,0.00,,,0.00,VWS V14.01,2013-01-05 15:55:00,
2013-01-05 11:00:00,35.8,16.0,29.38,SSE,158,2.9,4.7,44,0.00,,,0.00,VWS V14.01,2013-01-05 16:00:00,
2013-01-05 11:05:00,35.8,16.0,29.38,East,90,3.8,5.8,44,0.00,,,0.00,VWS V14.01,2013-01-05 16:05:00,
2013-01-05 11:10:00,35.2,16.0,29.38,SSE,158,3.8,6.3,45,0.00,,,0.00,VWS V14.01,2013-01-05 16:10:00,
2013-01-05 11:15:00,37.4,17.5,29.38,ESE,112,3.1,7.2,44,0.00,,,0.00,VWS V14.01,2013-01-05 16:15:00,
2013-01-05 11:20:00,38.5,18.5,29.38,SSE,158,1.3,5.6,44,0.00,,,0.00,VWS V14.01,2013-01-05 16:20:00,
2013-01-05 11:25:00,38.7,18.1,29.41,East,90,4.0,5.8,43,0.00,,,0.00,VWS V14.01,2013-01-05 16:25:00,
2013-01-05 11:30:00,39.2,18.6,29.41,SSW,202,4.0,4.0,43,0.00,,,0.00,VWS V14.01,2013-01-05 16:30:00,
2013-01-05 11:35:00,38.5,17.4,29.41,SE,135,2.7,2.7,42,0.00,,,0.00,VWS V14.01,2013-01-05 16:35:00,
2013-01-05 11:40:00,39.4,17.7,29.38,West,270,2.5,5.4,41,0.00,,,0.00,VWS V14.01,2013-01-05 16:40:00,
2013-01-05 11:45:00,39.2,17.5,29.38,SSW,202,5.4,8.5,41,0.00,,,0.00,VWS V14.01,2013-01-05 16:45:00,
2013-01-05 11:50:00,37.8,16.8,29.38,ESE,112,4.3,4.7,42,0.00,,,0.00,VWS V14.01,2013-01-05 16:50:00,
2013-01-05 11:55:00,38.7,17.6,29.35,SE,135,0.0,0.0,42,0.00,,,0.00,VWS V14.01,2013-01-05 16:55:00,
2013-01-05 12:00:00,39.4,17.7,29.35,SE,135,3.1,3.1,41,0.00,,,0.00,VWS V14.01,2013-01-05 17:00:00,
2013-01-05 12:05:00,39.9,18.1,29.35,NE,45,0.0,2.2,41,0.00,,,0.00,VWS V14.01,2013-01-05 17:05:00,
2013-01-05 12:10:00,40.5,18.6,29.35,SSE,158,2.2,2.2,41,0.00,,,0.00,VWS V14.01,2013-01-05 17:10:00,
2013-01-05 12:15:00,38.7,17.0,29.35,SE,135,3.8,3.8,41,0.00,,,0.00,VWS V14.01,2013-01-05 17:15:00,
2013-01-05 12:20:00,37.9,16.9,29.35,SE,135,4.0,6.3,42,0.00,,,0.00,VWS V14.01,2013-01-05 17:20:00,
2013-01-05 12:25:00,36.7,15.8,29.32,South,180,6.5,6.5,42,0.00,,,0.00,VWS V14.01,2013-01-05 17:25:00,
2013-01-05 12:30:00,36.3,16.0,29.32,East,90,2.0,2.0,43,0.00,,,0.00,VWS V14.01,2013-01-05 17:30:00,
2013-01-05 12:35:00,36.1,16.4,29.32,SE,135,2.0,2.0,44,0.00,,,0.00,VWS V14.01,2013-01-05 17:35:00,
2013-01-05 12:40:00,36.9,17.5,29.32,ESE,112,4.3,4.3,45,0.00,,,0.00,VWS V14.01,2013-01-05 17:40:00,
2013-01-05 12:45:00,36.7,17.4,29.32,SSW,202,5.4,5.8,45,0.00,,,0.00,VWS V14.01,2013-01-05 17:45:00,
2013-01-05 12:50:00,36.5,17.2,29.32,SE,135,4.9,5.6,45,0.00,,,0.00,VWS V14.01,2013-01-05 17:50:00,
2013-01-05 12:55:00,36.3,17.0,29.29,East,90,3.8,6.3,45,0.00,,,0.00,VWS V14.01,2013-01-05 17:55:00,
2013-01-05 13:00:00,36.1,16.9,29.29,NNW,338,1.3,3.6,45,0.00,,,0.00,VWS V14.01,2013-01-05 18:00:00,
2013-01-05 13:05:00,36.3,17.0,29.29,SSE,158,1.1,1.6,45,0.00,,,0.00,VWS V14.01,2013-01-05 18:05:00,
2013-01-05 13:10:00,36.9,17.5,29.29,East,90,2.9,3.4,45,0.00,,,0.00,VWS V14.01,2013-01-05 18:10:00,
2013-01-05 13:15:00,37.4,18.0,29.29,SSE,158,4.3,4.3,45,0.00,,,0.00,VWS V14.01,2013-01-05 18:15:00,
2013-01-05 13:20:00,36.9,17.5,29.29,East,90,3.1,6.0,45,0.00,,,0.00,VWS V14.01,2013-01-05 18:20:00,
2013-01-05 13:26:00,37.0,17.7,29.26,WSW,248,2.0,3.4,45,0.00,,,0.00,VWS V14.01,2013-01-05 18:26:00,
2013-01-05 13:31:00,36.7,17.4,29.26,SSE,158,2.7,5.8,45,0.00,,,0.00,VWS V14.01,2013-01-05 18:31:00,
2013-01-05 13:36:00,37.6,18.2,29.26,SW,225,1.6,4.3,45,0.00,,,0.00,VWS V14.01,2013-01-05 18:36:00,
2013-01-05 13:41:00,37.8,18.3,29.26,East,90,2.5,2.5,45,0.00,,,0.00,VWS V14.01,2013-01-05 18:41:00,
2013-01-05 13:46:00,39.4,19.3,29.26,East,90,4.0,4.3,44,0.00,,,0.00,VWS V14.01,2013-01-05 18:46:00,
2013-01-05 13:51:00,38.3,18.3,29.26,East,90,2.5,4.3,44,0.00,,,0.00,VWS V14.01,2013-01-05 18:51:00,
2013-01-05 13:56:00,37.2,17.3,29.26,SE,135,1.3,5.8,44,0.00,,,0.00,VWS V14.01,2013-01-05 18:56:00,
2013-01-05 14:01:00,36.9,17.5,29.26,SSW,202,2.7,5.4,45,0.00,,,0.00,VWS V14.01,2013-01-05 19:01:00,
2013-01-05 14:06:00,36.7,17.4,29.26,SSE,158,4.7,4.7,45,0.00,,,0.00,VWS V14.01,2013-01-05 19:06:00,
2013-01-05 14:11:00,37.6,18.7,29.26,South,180,3.6,5.8,46,0.00,,,0.00,VWS V14.01,2013-01-05 19:11:00,
2013-01-05 14:16:00,38.7,19.2,29.26,SSW,202,6.0,6.0,45,0.00,,,0.00,VWS V14.01,2013-01-05 19:16:00,
2013-01-05 14:21:00,39.2,19.1,29.26,WSW,248,3.6,3.8,44,0.00,,,0.00,VWS V14.01,2013-01-05 19:21:00,
2013-01-05 14:26:00,39.2,18.6,29.26,SSE,158,4.9,7.6,43,0.00,,,0.00,VWS V14.01,2013-01-05 19:26:00,
2013-01-05 14:31:00,39.2,18.6,29.26,South,180,8.1,11.0,43,0.00,,,0.00,VWS V14.01,2013-01-05 19:31:00,
2013-01-05 14:36:00,38.7,18.1,29.26,WSW,248,5.4,5.4,43,0.00,,,0.00,VWS V14.01,2013-01-05 19:36:00,
2013-01-05 14:41:00,38.1,17.6,29.26,SSW,202,10.5,10.5,43,0.00,,,0.00,VWS V14.01,2013-01-05 19:41:00,
2013-01-05 14:46:00,38.1,17.6,29.26,SSW,202,5.6,5.6,43,0.00,,,0.00,VWS V14.01,2013-01-05 19:46:00,
2013-01-05 14:51:00,37.0,18.2,29.26,SSW,202,5.6,5.6,46,0.00,,,0.00,VWS V14.01,2013-01-05 19:51:00,
2013-01-05 14:56:00,36.3,18.5,29.26,WSW,248,7.8,8.1,48,0.00,,,0.00,VWS V14.01,2013-01-05 19:56:00,
2013-01-05 15:01:00,35.4,19.1,29.26,SSW,202,6.0,6.0,51,0.00,,,0.00,VWS V14.01,2013-01-05 20:01:00,
2013-01-05 15:06:00,34.9,19.1,29.26,WSW,248,3.8,4.7,52,0.00,,,0.00,VWS V14.01,2013-01-05 20:06:00,
2013-01-05 15:11:00,34.7,19.3,29.26,SW,225,2.9,2.9,53,0.00,,,0.00,VWS V14.01,2013-01-05 20:11:00,
2013-01-05 15:16:00,34.7,19.8,29.26,SW,225,2.5,5.6,54,0.00,,,0.00,VWS V14.01,2013-01-05 20:16:00,
2013-01-05 15:21:00,34.9,19.9,29.23,SSE,158,3.8,7.4,54,0.00,,,0.00,VWS V14.01,2013-01-05 20:21:00,
2013-01-05 15:26:00,34.9,20.4,29.23,South,180,5.4,5.4,55,0.00,,,0.00,VWS V14.01,2013-01-05 20:26:00,
2013-01-05 15:31:00,34.5,20.5,29.23,WSW,248,3.6,6.5,56,0.00,,,0.00,VWS V14.01,2013-01-05 20:31:00,
2013-01-05 15:36:00,34.2,20.5,29.23,SW,225,5.6,5.6,57,0.00,,,0.00,VWS V14.01,2013-01-05 20:36:00,
2013-01-05 15:41:00,34.0,20.8,29.23,SSW,202,6.5,6.5,58,0.00,,,0.00,VWS V14.01,2013-01-05 20:41:00,
2013-01-05 15:46:00,33.8,20.6,29.23,SW,225,5.6,10.7,58,0.00,,,0.00,VWS V14.01,2013-01-05 20:46:00,
2013-01-05 15:51:00,33.6,20.8,29.23,SSW,202,2.7,5.8,59,0.00,,,0.00,VWS V14.01,2013-01-05 20:51:00,
2013-01-05 15:56:00,33.4,21.1,29.23,SSW,202,5.6,5.6,60,0.00,,,0.00,VWS V14.01,2013-01-05 20:56:00,
2013-01-05 16:01:00,33.1,21.1,29.23,SW,225,5.8,6.5,61,0.00,,,0.00,VWS V14.01,2013-01-05 21:01:00,
2013-01-05 16:06:00,32.7,20.8,29.23,SSW,202,6.5,11.9,61,0.00,,,0.00,VWS V14.01,2013-01-05 21:06:00,
2013-01-05 16:11:00,32.5,21.0,29.23,SSW,202,2.0,3.1,62,0.00,,,0.00,VWS V14.01,2013-01-05 21:11:00,
2013-01-05 16:16:00,32.4,20.8,29.23,South,180,3.1,4.9,62,0.00,,,0.00,VWS V14.01,2013-01-05 21:16:00,
2013-01-05 16:21:00,32.4,21.2,29.23,SSW,202,0.0,4.0,63,0.00,,,0.00,VWS V14.01,2013-01-05 21:21:00,
2013-01-05 16:27:00,32.2,21.0,29.23,SSW,202,1.3,2.5,63,0.00,,,0.00,VWS V14.01,2013-01-05 21:27:00,
2013-01-05 16:32:00,32.2,21.0,29.23,East,90,3.4,3.4,63,0.00,,,0.00,VWS V14.01,2013-01-05 21:32:00,
2013-01-05 16:37:00,32.2,21.4,29.20,SSE,158,2.9,2.9,64,0.00,,,0.00,VWS V14.01,2013-01-05 21:37:00,
2013-01-05 16:42:00,32.0,21.2,29.20,ESE,112,3.4,3.6,64,0.00,,,0.00,VWS V14.01,2013-01-05 21:42:00,
2013-01-05 16:47:00,31.8,21.0,29.20,SSE,158,2.9,3.8,64,0.00,,,0.00,VWS V14.01,2013-01-05 21:47:00,
2013-01-05 16:52:00,31.6,21.2,29.20,SSE,158,4.0,4.9,65,0.00,,,0.00,VWS V14.01,2013-01-05 21:52:00,
2013-01-05 16:57:00,31.5,21.1,29.20,SSE,158,6.0,6.0,65,0.00,,,0.00,VWS V14.01,2013-01-05 21:57:00,
2013-01-05 17:02:00,31.1,20.7,29.20,ENE,68,2.7,3.4,65,0.00,,,0.00,VWS V14.01,2013-01-05 22:02:00,
2013-01-05 17:07:00,31.1,21.1,29.20,ESE,112,4.0,4.5,66,0.00,,,0.00,VWS V14.01,2013-01-05 22:07:00,
2013-01-05 17:12:00,30.9,21.3,29.20,ESE,112,3.8,4.9,67,0.00,,,0.00,VWS V14.01,2013-01-05 22:12:00,
2013-01-05 17:17:00,30.9,21.6,29.20,ESE,112,5.6,6.0,68,0.00,,,0.00,VWS V14.01,2013-01-05 22:17:00,
2013-01-05 17:22:00,30.9,21.6,29.20,East,90,3.6,4.9,68,0.00,,,0.00,VWS V14.01,2013-01-05 22:22:00,
2013-01-05 17:27:00,30.7,21.4,29.20,ESE,112,2.9,4.7,68,0.00,,,0.00,VWS V14.01,2013-01-05 22:27:00,
2013-01-05 17:32:00,30.7,21.4,29.20,East,90,3.6,3.8,68,0.00,,,0.00,VWS V14.01,2013-01-05 22:32:00,
2013-01-05 17:37:00,30.7,21.8,29.20,SE,135,4.3,4.3,69,0.00,,,0.00,VWS V14.01,2013-01-05 22:37:00,
2013-01-05 17:42:00,30.6,21.6,29.17,East,90,5.8,5.8,69,0.00,,,0.00,VWS V14.01,2013-01-05 22:42:00,
2013-01-05 17:47:00,30.6,21.6,29.17,ENE,68,2.9,2.9,69,0.00,,,0.00,VWS V14.01,2013-01-05 22:47:00,
2013-01-05 17:52:00,30.4,21.4,29.17,ENE,68,2.2,2.7,69,0.00,,,0.00,VWS V14.01,2013-01-05 22:52:00,
2013-01-05 17:57:00,30.4,21.4,29.17,NE,45,3.1,5.6,69,0.00,,,0.00,VWS V14.01,2013-01-05 22:57:00,
2013-01-05 18:02:00,30.4,21.4,29.17,East,90,1.6,2.0,69,0.00,,,0.00,VWS V14.01,2013-01-05 23:02:00,
2013-01-05 18:07:00,30.0,21.1,29.17,SSW,202,0.0,0.0,69,0.00,,,0.00,VWS V14.01,2013-01-05 23:07:00,
2013-01-05 18:12:00,30.0,21.4,29.17,SSE,158,0.0,2.2,70,0.00,,,0.00,VWS V14.01,2013-01-05 23:12:00,
2013-01-05 18:17:00,30.0,21.4,29.17,ESE,112,3.8,3.8,70,0.00,,,0.00,VWS V14.01,2013-01-05 23:17:00,
2013-01-05 18:22:00,30.0,21.4,29.17,NE,45,1.6,1.6,70,0.00,,,0.00,VWS V14.01,2013-01-05 23:22:00,
2013-01-05 18:27:00,29.8,21.3,29.17,East,90,0.9,3.6,70,0.00,,,0.00,VWS V14.01,2013-01-05 23:27:00,
2013-01-05 18:32:00,30.0,21.8,29.17,ENE,68,1.1,6.5,71,0.00,,,0.00,VWS V14.01,2013-01-05 23:32:00,
2013-01-05 18:37:00,30.0,21.8,29.17,ESE,112,3.8,3.8,71,0.00,,,0.00,VWS V14.01,2013-01-05 23:37:00,
2013-01-05 18:42:00,30.2,21.9,29.14,ESE,112,4.7,4.7,71,0.00,,,0.00,VWS V14.01,2013-01-05 23:42:00,
2013-01-05 18:47:00,30.2,21.9,29.14,ESE,112,0.0,4.3,71,0.00,,,0.00,VWS V14.01,2013-01-05 23:47:00,
2013-01-05 18:52:00,30.4,22.1,29.14,ENE,68,4.0,4.3,71,0.00,,,0.00,VWS V14.01,2013-01-05 23:52:00,
2013-01-05 18:57:00,30.4,22.1,29.14,East,90,2.9,2.9,71,0.00,,,0.00,VWS V14.01,2013-01-05 23:57:00,
2013-01-05 19:02:00,30.4,22.1,29.14,ENE,68,2.9,4.0,71,0.00,,,0.00,VWS V14.01,2013-01-06 00:02:00,
2013-01-05 19:07:00,30.2,21.9,29.14,East,90,2.0,2.9,71,0.00,,,0.00,VWS V14.01,2013-01-06 00:07:00,
2013-01-05 19:12:00,30.2,21.9,29.14,East,90,3.4,3.4,71,0.00,,,0.00,VWS V14.01,2013-01-06 00:12:00,
2013-01-05 19:17:00,30.4,22.1,29.14,ESE,112,1.6,4.0,71,0.00,,,0.00,VWS V14.01,2013-01-06 00:17:00,
2013-01-05 19:22:00,30.6,22.3,29.14,WSW,248,1.6,7.2,71,0.00,,,0.00,VWS V14.01,2013-01-06 00:22:00,
2013-01-05 19:27:00,30.6,22.3,29.14,ESE,112,1.6,1.6,71,0.00,,,0.00,VWS V14.01,2013-01-06 00:27:00,
2013-01-05 19:33:00,30.6,22.3,29.14,ESE,112,6.0,6.0,71,0.00,,,0.00,VWS V14.01,2013-01-06 00:33:00,
2013-01-05 19:38:00,30.7,22.8,29.14,SE,135,2.0,3.1,72,0.00,,,0.00,VWS V14.01,2013-01-06 00:38:00,
2013-01-05 19:43:00,30.9,23.0,29.14,SSE,158,4.3,5.4,72,0.00,,,0.00,VWS V14.01,2013-01-06 00:43:00,
2013-01-05 19:48:00,31.1,23.1,29.14,SE,135,2.5,3.8,72,0.00,,,0.00,VWS V14.01,2013-01-06 00:48:00,
2013-01-05 19:53:00,31.1,23.1,29.14,ESE,112,3.6,4.9,72,0.00,,,0.00,VWS V14.01,2013-01-06 00:53:00,
2013-01-05 19:58:00,31.3,23.3,29.14,South,180,2.0,4.3,72,0.00,,,0.00,VWS V14.01,2013-01-06 00:58:00,
2013-01-05 20:03:00,31.5,23.8,29.14,SSE,158,7.8,8.1,73,0.00,,,0.00,VWS V14.01,2013-01-06 01:03:00,
2013-01-05 20:08:00,31.6,24.0,29.14,ESE,112,3.6,4.7,73,0.00,,,0.00,VWS V14.01,2013-01-06 01:08:00,
2013-01-05 20:13:00,31.6,24.0,29.14,SSW,202,4.7,4.7,73,0.00,,,0.00,VWS V14.01,2013-01-06 01:13:00,
2013-01-05 20:18:00,31.8,24.5,29.14,SSE,158,3.6,6.9,74,0.00,,,0.00,VWS V14.01,2013-01-06 01:18:00,
2013-01-05 20:23:00,32.0,24.7,29.12,South,180,5.4,5.4,74,0.00,,,0.00,VWS V14.01,2013-01-06 01:23:00,
2013-01-05 20:28:00,32.2,24.8,29.12,SSE,158,6.0,7.8,74,0.00,,,0.00,VWS V14.01,2013-01-06 01:28:00,
2013-01-05 20:33:00,32.2,24.8,29.12,ESE,112,3.8,7.4,74,0.00,,,0.00,VWS V14.01,2013-01-06 01:33:00,
2013-01-05 20:38:00,32.2,24.8,29.12,South,180,2.9,8.7,74,0.00,,,0.00,VWS V14.01,2013-01-06 01:38:00,
2013-01-05 20:43:00,32.5,25.2,29.12,SSE,158,7.6,7.6,74,0.00,,,0.00,VWS V14.01,2013-01-06 01:43:00,
2013-01-05 20:48:00,32.5,25.2,29.12,SSE,158,7.6,7.6,74,0.00,,,0.00,VWS V14.01,2013-01-06 01:48:00,
2013-01-05 20:53:00,32.7,25.7,29.12,SSW,202,10.1,10.1,75,0.00,,,0.00,VWS V14.01,2013-01-06 01:53:00,
2013-01-05 20:58:00,32.7,25.4,29.12,South,180,6.5,6.5,74,0.00,,,0.00,VWS V14.01,2013-01-06 01:58:00,
2013-01-05 21:03:00,32.7,25.4,29.12,South,180,7.4,8.5,74,0.00,,,0.00,VWS V14.01,2013-01-06 02:03:00,
2013-01-05 21:08:00,32.9,25.9,29.09,South,180,2.0,5.8,75,0.00,,,0.00,VWS V14.01,2013-01-06 02:08:00,
2013-01-05 21:13:00,32.9,25.9,29.09,SSE,158,1.3,1.3,75,0.00,,,0.00,VWS V14.01,2013-01-06 02:13:00,
2013-01-05 21:18:00,32.9,25.9,29.09,South,180,10.1,10.1,75,0.00,,,0.00,VWS V14.01,2013-01-06 02:18:00,
2013-01-05 21:23:00,32.9,25.9,29.09,SSW,202,6.3,7.2,75,0.00,,,0.00,VWS V14.01,2013-01-06 02:23:00,
2013-01-05 21:28:00,32.9,26.2,29.09,SSE,158,4.0,4.3,76,0.00,,,0.00,VWS V14.01,2013-01-06 02:28:00,
2013-01-05 21:33:00,32.9,26.2,29.09,SSW,202,1.6,7.8,76,0.00,,,0.00,VWS V14.01,2013-01-06 02:33:00,
2013-01-05 21:38:00,33.1,26.4,29.06,SSE,158,6.7,7.8,76,0.00,,,0.00,VWS V14.01,2013-01-06 02:38:00,
2013-01-05 21:43:00,33.1,26.7,29.06,SSW,202,10.5,11.0,77,0.00,,,0.00,VWS V14.01,2013-01-06 02:43:00,
2013-01-05 21:48:00,33.3,26.8,29.06,SSW,202,6.3,6.3,77,0.00,,,0.00,VWS V14.01,2013-01-06 02:48:00,
2013-01-05 21:53:00,33.3,26.8,29.06,SSE,158,2.5,3.6,77,0.00,,,18.06,VWS V14.01,2013-01-06 02:53:00,
2013-01-05 21:58:00,33.4,27.0,29.06,SSW,202,7.8,7.8,77,0.00,,,18.06,VWS V14.01,2013-01-06 02:58:00,
2013-01-05 22:03:00,33.4,27.0,29.06,SW,225,4.3,5.4,77,0.00,,,18.06,VWS V14.01,2013-01-06 03:03:00,
2013-01-05 22:08:00,33.4,27.3,29.06,SSE,158,4.0,6.5,78,0.00,,,18.06,VWS V14.01,2013-01-06 03:08:00,
2013-01-05 22:13:00,33.6,27.5,29.06,South,180,3.8,10.5,78,0.00,,,18.06,VWS V14.01,2013-01-06 03:13:00,
2013-01-05 22:18:00,33.6,27.5,29.06,SSW,202,8.7,8.7,78,0.00,,,18.06,VWS V14.01,2013-01-06 03:18:00,
2013-01-05 22:23:00,33.6,27.8,29.09,South,180,5.8,10.7,79,0.00,,,18.06,VWS V14.01,2013-01-06 03:23:00,
2013-01-05 22:28:00,33.8,28.0,29.09,SSW,202,6.5,6.5,79,0.00,,,18.06,VWS V14.01,2013-01-06 03:28:00,
2013-01-05 22:34:00,33.8,28.0,29.09,SSW,202,6.0,9.8,79,0.00,,,18.06,VWS V14.01,2013-01-06 03:34:00,
2013-01-05 22:39:00,33.8,28.0,29.09,SSW,202,4.9,5.8,79,0.00,,,18.06,VWS V14.01,2013-01-06 03:39:00,
2013-01-05 22:44:00,33.8,28.0,29.09,SSW,202,2.7,6.9,79,0.00,,,18.06,VWS V14.01,2013-01-06 03:44:00,
2013-01-05 22:49:00,33.8,28.0,29.09,WSW,248,1.6,6.3,79,0.00,,,18.06,VWS V14.01,2013-01-06 03:49:00,
2013-01-05 22:54:00,34.0,28.5,29.09,SSW,202,6.5,8.7,80,0.00,,,18.06,VWS V14.01,2013-01-06 03:54:00,
2013-01-05 22:59:00,34.0,28.8,29.09,SSW,202,2.9,6.3,81,0.00,,,18.06,VWS V14.01,2013-01-06 03:59:00,
2013-01-05 23:04:00,34.3,29.1,29.09,SSW,202,8.7,8.7,81,0.00,,,18.06,VWS V14.01,2013-01-06 04:04:00,
2013-01-05 23:09:00,34.5,29.6,29.09,SW,225,5.4,7.2,82,0.00,,,18.06,VWS V14.01,2013-01-06 04:09:00,
2013-01-05 23:14:00,34.7,29.5,29.09,SSW,202,6.5,6.5,81,0.00,,,18.06,VWS V14.01,2013-01-06 04:14:00,
2013-01-05 23:19:00,35.2,28.5,29.09,WSW,248,7.4,12.8,76,0.00,,,18.06,VWS V14.01,2013-01-06 04:19:00,
2013-01-05 23:24:00,35.2,27.8,29.09,WSW,248,12.3,12.3,74,0.00,,,18.06,VWS V14.01,2013-01-06 04:24:00,
2013-01-05 23:29:00,35.4,27.6,29.09,SW,225,10.1,13.2,73,0.00,,,18.06,VWS V14.01,2013-01-06 04:29:00,
2013-01-05 23:34:00,35.2,27.5,29.09,SW,225,7.4,11.9,73,0.00,,,18.06,VWS V14.01,2013-01-06 04:34:00,
2013-01-05 23:39:00,35.2,27.5,29.09,WSW,248,10.7,10.7,73,0.00,,,18.06,VWS V14.01,2013-01-06 04:39:00,
2013-01-05 23:44:00,35.1,27.3,29.09,WSW,248,8.1,15.2,73,0.00,,,18.06,VWS V14.01,2013-01-06 04:44:00,
2013-01-05 23:49:00,35.1,27.3,29.09,SW,225,5.4,5.4,73,0.00,,,18.06,VWS V14.01,2013-01-06 04:49:00,
2013-01-05 23:54:00,35.1,27.3,29.09,WSW,248,12.5,12.5,73,0.00,,,18.06,VWS V14.01,2013-01-06 04:54:00,
2013-01-05 23:59:00,35.1,27.0,29.09,WSW,248,10.5,10.7,72,0.00,,,18.06,VWS V14.01,2013-01-06 04:59:00,